�������l�o���
Date,Time,MP-1(��Sv/h),MP-2(��Sv/h),MP-3(��Sv/h),MP-4(��Sv/h),MP-5(��Sv/h),MP-6(��Sv/h),MP-7(��Sv/h),����,����(m/s),���J
2024/02/16,00:00,0.148,0.133,0.210,0.200,0.207,0.119,0.076,���쐼,7.3,�L
2024/02/16,00:10,0.148,0.134,0.211,0.200,0.207,0.118,0.076,���쐼,6.2,�L
2024/02/16,00:20,0.149,0.134,0.210,0.199,0.208,0.119,0.076,���k��,4.8,�L
2024/02/16,00:30,0.148,0.133,0.212,0.201,0.206,0.118,0.076,���k��,5.3,�L
2024/02/16,00:40,0.149,0.134,0.211,0.200,0.208,0.119,0.077,��,4.1,�L
2024/02/16,00:50,0.149,0.134,0.212,0.201,0.207,0.119,0.078,�쐼,2.7,�L
2024/02/16,01:00,0.149,0.134,0.211,0.200,0.208,0.119,0.077,���쐼,2.9,�L
2024/02/16,01:10,0.150,0.133,0.212,0.201,0.209,0.120,0.077,���쐼,3.2,�L
2024/02/16,01:20,0.149,0.135,0.212,0.202,0.208,0.120,0.077,�쐼,4.8,�L
2024/02/16,01:30,0.150,0.133,0.212,0.200,0.209,0.120,0.079,���쐼,3.6,�L
2024/02/16,01:40,0.150,0.135,0.212,0.202,0.207,0.120,0.078,��,2.5,�L
2024/02/16,01:50,0.150,0.136,0.213,0.201,0.209,0.121,0.078,���k��,2.0,�L
2024/02/16,02:00,0.149,0.135,0.212,0.201,0.209,0.120,0.079,���k��,6.0,�L
2024/02/16,02:10,0.149,0.135,0.212,0.201,0.207,0.121,0.079,��,8.2,�L
2024/02/16,02:20,0.150,0.134,0.212,0.201,0.210,0.120,0.078,���k��,9.5,��
2024/02/16,02:30,0.150,0.134,0.212,0.201,0.208,0.120,0.078,���k��,10.1,�L
2024/02/16,02:40,0.149,0.134,0.212,0.201,0.209,0.121,0.078,���k��,7.0,��
2024/02/16,02:50,0.149,0.134,0.212,0.201,0.208,0.120,0.078,�k��,9.8,��
2024/02/16,03:00,0.149,0.134,0.212,0.202,0.208,0.120,0.077,�k��,14.0,��
2024/02/16,03:10,0.150,0.135,0.212,0.201,0.209,0.120,0.077,�k��,11.1,��
2024/02/16,03:20,0.150,0.134,0.214,0.200,0.208,0.120,0.078,�k��,12.3,��
2024/02/16,03:30,0.150,0.135,0.213,0.201,0.208,0.119,0.078,�k��,10.0,��
2024/02/16,03:40,0.150,0.135,0.213,0.202,0.209,0.120,0.077,�k�k��,11.4,��
2024/02/16,03:50,0.151,0.134,0.212,0.200,0.209,0.121,0.077,�k��,10.0,��
2024/02/16,04:00,0.149,0.135,0.213,0.201,0.209,0.120,0.079,�k��,10.3,��
2024/02/16,04:10,0.150,0.136,0.214,0.202,0.209,0.120,0.077,�k��,7.3,��
2024/02/16,04:20,0.150,0.135,0.213,0.201,0.208,0.120,0.077,�k��,9.0,��
2024/02/16,04:30,0.150,0.134,0.213,0.201,0.208,0.121,0.078,�k��,11.7,��
2024/02/16,04:40,0.150,0.135,0.214,0.202,0.208,0.120,0.078,�k��,11.7,��
2024/02/16,04:50,0.151,0.134,0.213,0.202,0.207,0.121,0.078,�k��,7.2,��
2024/02/16,05:00,0.150,0.134,0.213,0.202,0.208,0.119,0.078,�k��,10.6,��
2024/02/16,05:10,0.150,0.134,0.212,0.201,0.207,0.120,0.077,�k��,9.8,��
2024/02/16,05:20,0.150,0.135,0.212,0.202,0.209,0.120,0.077,�k��,9.5,��
2024/02/16,05:30,0.150,0.134,0.212,0.201,0.208,0.120,0.077,���k��,9.2,��
2024/02/16,05:40,0.150,0.133,0.213,0.202,0.208,0.120,0.077,�k��,8.5,��
2024/02/16,05:50,0.150,0.135,0.212,0.202,0.207,0.119,0.077,���k��,7.6,��
2024/02/16,06:00,0.150,0.134,0.212,0.201,0.208,0.120,0.077,�k��,6.2,��
2024/02/16,06:10,0.149,0.133,0.212,0.201,0.208,0.119,0.077,���k��,4.5,��
2024/02/16,06:20,0.149,0.134,0.212,0.202,0.207,0.120,0.077,�k��,3.9,��
2024/02/16,06:30,0.150,0.135,0.212,0.201,0.208,0.119,0.077,�k�k��,3.2,��
2024/02/16,06:40,0.149,0.133,0.213,0.200,0.208,0.119,0.076,�k�k��,7.3,��
2024/02/16,06:50,0.148,0.133,0.212,0.202,0.207,0.119,0.077,�k�k��,7.6,��
2024/02/16,07:00,0.149,0.133,0.212,0.200,0.207,0.120,0.077,�k�k��,9.5,��
2024/02/16,07:10,0.149,0.134,0.212,0.202,0.207,0.119,0.077,�k�k��,8.1,��
2024/02/16,07:20,0.149,0.134,0.212,0.200,0.207,0.119,0.077,�k�k��,8.2,��
2024/02/16,07:30,0.149,0.133,0.212,0.200,0.207,0.120,0.076,�k�k��,7.6,��
2024/02/16,07:40,0.149,0.133,0.213,0.200,0.208,0.120,0.076,�k�k��,6.1,��
2024/02/16,07:50,0.149,0.134,0.212,0.201,0.207,0.119,0.076,�k�k��,7.1,��
2024/02/16,08:00,0.149,0.133,0.212,0.200,0.207,0.120,0.077,�k��,7.1,��
2024/02/16,08:10,0.149,0.134,0.212,0.201,0.207,0.119,0.077,�k�k��,5.1,��
2024/02/16,08:20,0.150,0.134,0.212,0.200,0.207,0.119,0.078,�k�k��,5.9,��
2024/02/16,08:30,0.150,0.133,0.213,0.201,0.208,0.119,0.077,�k�k��,5.8,��
2024/02/16,08:40,0.148,0.134,0.212,0.200,0.207,0.119,0.077,�k�k��,9.5,��
2024/02/16,08:50,0.149,0.133,0.211,0.201,0.207,0.118,0.077,�k�k��,8.6,��
2024/02/16,09:00,0.149,0.133,0.212,0.201,0.208,0.119,0.077,�k��,8.9,��
2024/02/16,09:10,0.149,0.134,0.213,0.200,0.207,0.119,0.076,�k��,8.2,��
2024/02/16,09:20,0.148,0.132,0.211,0.201,0.207,0.118,0.077,�k�k��,8.9,��
2024/02/16,09:30,0.149,0.133,0.212,0.200,0.207,0.119,0.077,�k�k��,8.4,��
2024/02/16,09:40,0.149,0.134,0.213,0.200,0.208,0.119,0.077,�k�k��,8.2,��
2024/02/16,09:50,0.149,0.134,0.212,0.201,0.207,0.118,0.077,�k�k��,8.2,��
2024/02/16,10:00,0.149,0.132,0.212,0.201,0.208,0.119,0.076,�k�k��,6.7,��
2024/02/16,10:10,0.148,0.133,0.212,0.200,0.208,0.119,0.077,�k�k��,7.6,��
2024/02/16,10:20,0.148,0.133,0.211,0.200,0.207,0.119,0.076,�k�k��,5.9,��
2024/02/16,10:30,0.149,0.133,0.212,0.200,0.207,0.119,0.077,�k�k��,6.8,��
2024/02/16,10:40,0.149,0.133,0.210,0.200,0.207,0.119,0.076,�k��,6.2,��
2024/02/16,10:50,0.148,0.132,0.211,0.201,0.207,0.119,0.076,�k,6.9,��
2024/02/16,11:00,0.148,0.132,0.210,0.200,0.208,0.119,0.076,�k�k��,6.8,��
2024/02/16,11:10,0.149,0.133,0.210,0.199,0.207,0.118,0.076,�k�k��,8.6,��
2024/02/16,11:20,0.149,0.134,0.211,0.201,0.207,0.119,0.077,�k�k��,7.6,��
2024/02/16,11:30,0.149,0.132,0.211,0.200,0.207,0.118,0.077,�k�k��,7.8,��
2024/02/16,11:40,0.149,0.133,0.211,0.200,0.207,0.119,0.076,�k�k��,7.7,��
2024/02/16,11:50,0.149,0.134,0.212,0.200,0.208,0.119,0.076,�k��,7.6,��
2024/02/16,12:00,0.148,0.133,0.211,0.201,0.207,0.119,0.077,�k�k��,7.9,��
2024/02/16,12:10,0.148,0.134,0.213,0.199,0.207,0.119,0.076,�k�k��,7.7,��
2024/02/16,12:20,0.148,0.133,0.212,0.201,0.209,0.119,0.076,�k�k��,9.2,��
2024/02/16,12:30,0.149,0.133,0.213,0.200,0.207,0.119,0.076,�k��,7.4,��
2024/02/16,12:40,0.149,0.132,0.211,0.199,0.208,0.118,0.077,�k��,5.5,��
2024/02/16,12:50,0.148,0.133,0.211,0.201,0.207,0.119,0.077,�k�k��,6.8,��
2024/02/16,13:00,0.149,0.134,0.212,0.200,0.208,0.119,0.076,�k�k��,6.6,��
2024/02/16,13:10,0.148,0.132,0.210,0.201,0.208,0.119,0.077,�k�k��,7.5,��
2024/02/16,13:20,0.149,0.133,0.212,0.199,0.207,0.119,0.077,�k��,8.3,��
2024/02/16,13:30,0.149,0.133,0.211,0.200,0.208,0.118,0.077,�k��,7.9,��
2024/02/16,13:40,0.148,0.133,0.212,0.200,0.207,0.119,0.076,�k�k��,4.7,��
2024/02/16,13:50,0.149,0.133,0.213,0.200,0.207,0.119,0.077,�k�k��,6.2,��
2024/02/16,14:00,0.148,0.134,0.211,0.201,0.207,0.119,0.077,�k,5.8,��
2024/02/16,14:10,0.149,0.133,0.212,0.200,0.207,0.119,0.076,�k�k��,7.6,��
2024/02/16,14:20,0.149,0.133,0.211,0.200,0.208,0.118,0.077,�k,5.7,��
2024/02/16,14:30,0.148,0.133,0.212,0.199,0.208,0.118,0.076,�k�k��,5.0,��
2024/02/16,14:40,0.149,0.134,0.212,0.201,0.209,0.119,0.077,�k�k��,5.4,��
2024/02/16,14:50,0.149,0.133,0.212,0.201,0.208,0.119,0.077,�k,4.1,��
2024/02/16,15:00,0.148,0.133,0.211,0.201,0.207,0.119,0.077,�k�k��,5.6,��
2024/02/16,15:10,0.149,0.133,0.213,0.201,0.208,0.119,0.077,�k�k��,4.7,��
2024/02/16,15:20,0.149,0.135,0.213,0.203,0.208,0.119,0.077,�k,4.1,��
2024/02/16,15:30,0.149,0.133,0.213,0.203,0.209,0.119,0.077,�k�k��,6.0,��
2024/02/16,15:40,0.149,0.134,0.213,0.201,0.208,0.119,0.076,�k,5.0,��
2024/02/16,15:50,0.149,0.134,0.213,0.202,0.208,0.118,0.077,�k�k��,4.1,��
2024/02/16,16:00,0.149,0.133,0.212,0.202,0.208,0.119,0.077,�k��,4.4,��
2024/02/16,16:10,0.149,0.133,0.212,0.201,0.208,0.119,0.077,�k�k��,5.4,��
2024/02/16,16:20,0.150,0.134,0.213,0.201,0.208,0.119,0.077,�k�k��,3.5,��
2024/02/16,16:30,0.149,0.133,0.211,0.201,0.207,0.119,0.077,�k��,3.1,��
2024/02/16,16:40,0.148,0.133,0.214,0.201,0.207,0.120,0.077,�k�k��,5.9,��
2024/02/16,16:50,0.149,0.133,0.212,0.202,0.208,0.120,0.076,�k��,4.0,��
2024/02/16,17:00,0.150,0.134,0.211,0.202,0.209,0.119,0.076,�k��,3.2,��
2024/02/16,17:10,0.149,0.133,0.211,0.202,0.208,0.119,0.077,�k�k��,2.4,��
2024/02/16,17:20,0.149,0.133,0.212,0.201,0.207,0.119,0.077,�k�k��,4.0,��
2024/02/16,17:30,0.149,0.133,0.212,0.201,0.208,0.120,0.077,�k�k��,5.1,��
2024/02/16,17:40,0.148,0.133,0.213,0.200,0.208,0.119,0.076,�k�k��,5.8,��
2024/02/16,17:50,0.150,0.134,0.213,0.201,0.208,0.119,0.075,�k,6.1,��
2024/02/16,18:00,0.149,0.134,0.213,0.202,0.207,0.118,0.077,�k�k��,5.9,��
2024/02/16,18:10,0.149,0.133,0.212,0.202,0.208,0.119,0.076,�k�k��,5.7,��
2024/02/16,18:20,0.150,0.133,0.212,0.201,0.207,0.119,0.076,�k�k��,8.1,��
2024/02/16,18:30,0.149,0.133,0.213,0.201,0.207,0.119,0.077,�k�k��,8.2,��
2024/02/16,18:40,0.150,0.134,0.213,0.201,0.208,0.119,0.077,�k�k��,6.8,��
2024/02/16,18:50,0.150,0.133,0.212,0.202,0.207,0.119,0.077,�k��,6.3,��
2024/02/16,19:00,0.150,0.134,0.212,0.201,0.208,0.119,0.077,�k��,4.9,��
2024/02/16,19:10,0.149,0.134,0.212,0.202,0.208,0.119,0.077,�k��,3.8,��
2024/02/16,19:20,0.150,0.134,0.213,0.201,0.208,0.119,0.077,�k�k��,4.2,��
2024/02/16,19:30,0.150,0.134,0.212,0.202,0.208,0.119,0.077,�k��,4.2,��
2024/02/16,19:40,0.149,0.134,0.213,0.202,0.208,0.119,0.077,�k�k��,3.6,��
2024/02/16,19:50,0.150,0.133,0.212,0.201,0.208,0.119,0.077,�k�k��,2.9,��
2024/02/16,20:00,0.150,0.134,0.213,0.202,0.208,0.120,0.076,�k�k��,2.1,��
2024/02/16,20:10,0.149,0.133,0.212,0.201,0.207,0.119,0.078,�k�k��,3.1,��
2024/02/16,20:20,0.150,0.134,0.213,0.202,0.208,0.119,0.077,�k�k��,2.7,��
2024/02/16,20:30,0.149,0.134,0.212,0.202,0.208,0.119,0.077,�k�k��,3.2,��
2024/02/16,20:40,0.149,0.134,0.213,0.202,0.208,0.119,0.077,�k�k��,4.2,��
2024/02/16,20:50,0.149,0.134,0.213,0.202,0.208,0.119,0.077,�k�k��,3.5,��
2024/02/16,21:00,0.151,0.134,0.212,0.202,0.208,0.119,0.077,�k�k��,3.4,��
2024/02/16,21:10,0.149,0.134,0.213,0.201,0.208,0.119,0.077,�k�k��,3.1,��
2024/02/16,21:20,0.148,0.135,0.213,0.201,0.207,0.120,0.077,�k�k��,5.3,��
2024/02/16,21:30,0.149,0.134,0.212,0.202,0.207,0.119,0.078,�k�k��,5.0,��
2024/02/16,21:40,0.148,0.134,0.213,0.201,0.207,0.120,0.077,�k�k��,5.4,��
2024/02/16,21:50,0.149,0.134,0.213,0.201,0.208,0.120,0.077,�k�k��,3.4,��
2024/02/16,22:00,0.150,0.133,0.212,0.201,0.208,0.119,0.077,�k�k��,3.3,��
2024/02/16,22:10,0.149,0.134,0.212,0.201,0.207,0.119,0.077,�k�k��,3.3,��
2024/02/16,22:20,0.149,0.133,0.213,0.202,0.207,0.119,0.077,�k�k��,2.2,��
2024/02/16,22:30,0.149,0.134,0.213,0.202,0.208,0.119,0.077,�k�k��,3.8,��
2024/02/16,22:40,0.150,0.135,0.213,0.201,0.208,0.119,0.077,�k�k��,4.7,��
2024/02/16,22:50,0.150,0.134,0.213,0.202,0.207,0.119,0.077,�k�k��,4.7,��
2024/02/16,23:00,0.150,0.134,0.213,0.201,0.209,0.120,0.077,�k�k��,4.4,��
2024/02/16,23:10,0.150,0.134,0.213,0.200,0.208,0.118,0.077,�k�k��,4.3,��
2024/02/16,23:20,0.148,0.134,0.214,0.201,0.207,0.119,0.077,�k��,3.9,��
2024/02/16,23:30,0.150,0.134,0.214,0.201,0.208,0.120,0.076,�k��,4.1,��
2024/02/16,23:40,0.150,0.134,0.213,0.203,0.207,0.120,0.076,�k��,4.1,��
2024/02/16,23:50,0.150,0.134,0.214,0.201,0.208,0.120,0.077,�k��,3.9,��
